Location: Carr Mill
(33.2054°N, 85.9439°W)
Time: 23:21:55
(UTC+00:00)

Cosmos 1340 - Pass Details

Date: 29 October 2020
Orbit: 501 x 504 km, 81.2° (Epoch: 28 November)

Event Time Altitude Azimuth Distance (km) Brightness Sun altitude
Rises 23:43:07 0° 354° (N) 2,609 6.2 -10.8°
Reaches altitude 10° 23:45:16 10° 356° (N) 1,720 5.3 -11.2°
Maximum altitude 23:49:02 73° 81° (E) 532 2.5 -12.0°
Drops below altitude 10° 23:52:46 10° 167° (SSE) 1,708 5.3 -12.8°
Sets 23:54:53 0° 169° (S) 2,588 6.2 -13.2°
